Wind_Speed
15 12 11 3 28 11 8 12 7 6 5 4 3 2 2 4 6 3 1 6 7 4 5 7 7 7 9 10 11 10 10 10 8 6 5 2 2 3 3 5 6 6 7 4 3 3 4 3 1
16 7 10 9 21 13 14 11 3 5 5 10 5 5 4 3 3 1 2 2 3 2 2 3 4 4 6 9 9 9 10 8 6 5 5 4 3 3 3 4 5 6 7 5 3 2 3 1 0
15 12 14 24 10 13 10 9 10 10 11 9 7 3 3 2 2 2 1 3 3 1 2 2 3 3 3 6 6 6 7 6 6 5 4 5 5 3 2 3 4 5 6 5 3 3 2 1 1
17 16 28 7 8 12 12 4 9 8 8 11 9 8 6 1 1 1 1 3 2 1 1 2 1 2 2 4 4 4 7 6 6 5 6 9 3 4 2 2 4 5 6 5 3 2 2 2 2
27 34 13 16 12 14 15 13 10 8 9 9 6 8 6 4 4 4 4 3 2 1 1 1 2 3 3 3 2 3 3 3 3 3 4 3 4 3 5 4 3 5 5 3 2 1 1 1 1
32 22 13 6 12 13 10 11 11 9 8 8 7 5 4 4 3 4 2 3 3 3 3 3 3 3 3 3 1 1 1 2 2 3 3 4 5 1 6 5 2 5 6 3 3 3 2 3 3
24 9 21 16 11 12 12 13 10 12 11 9 8 6 4 3 3 2 3 4 7 5 5 2 2 1 1 2 2 3 4 4 4 5 5 9 4 6 4 4 2 2 5 5 2 3 2 4 3
14 14 14 20 11 13 15 14 12 12 14 17 11 10 7 5 1 2 2 10 8 6 5 3 2 1 2 3 4 5 5 5 6 6 9 5 7 12 9 3 4 1 3 4 3 4 1 1 1
13 4 15 13 12 15 18 15 15 14 14 15 14 11 9 6 3 4 2 7 4 4 5 5 3 2 2 3 5 8 7 7 8 12 16 6 6 11 10 2 1 1 3 2 3 4 1 3 1
10 7 15 13 12 15 12 10 17 17 16 18 17 14 10 8 5 4 5 4 4 4 4 4 4 4 2 2 4 7 8 9 10 10 5 4 1 1 3 1 1 1 2 2 2 1 2 1 1
7 7 5 7 8 11 15 19 5 16 17 17 14 14 11 10 10 9 8 6 4 2 2 2 3 3 4 5 4 4 7 9 9 1 5 3 0 2 0 3 2 4 4 3 2 1 1 2 2
9 7 3 7 8 18 10 12 11 13 16 15 15 16 14 12 13 12 11 10 7 6 5 4 4 3 2 3 1 3 6 8 1 3 3 4 1 2 2 2 4 3 2 5 4 3 4 4 2
3 6 9 7 3 11 7 11 13 13 14 16 16 17 18 19 18 17 13 12 11 10 7 6 3 4 6 8 9 4 4 10 3 5 4 1 1 1 2 5 5 5 4 4 4 4 5 6 6
3 10 12 12 7 9 7 9 15 15 15 15 15 17 22 24 23 22 17 15 13 12 9 7 7 10 10 13 17 1 4 7 5 4 3 4 4 5 5 6 5 5 5 5 5 5 2 6 5
6 6 6 8 9 4 6 5 13 14 13 13 16 17 21 21 23 19 19 15 16 16 18 13 12 13 12 12 13 7 9 8 4 3 5 3 3 2 3 3 5 6 7 8 8 6 3 4 4
7 8 5 6 15 16 13 7 9 13 10 12 13 16 12 13 16 18 15 16 15 15 18 17 15 16 15 14 15 13 10 5 4 4 2 3 5 3 3 4 6 9 8 10 9 6 5 6 5
3 3 0 6 17 13 20 17 14 13 13 12 13 12 13 13 16 14 12 12 11 13 16 15 13 13 13 16 15 14 14 14 12 5 1 8 4 3 3 4 8 10 11 12 9 12 12 8 6
11 13 6 8 10 8 14 17 17 23 12 11 15 16 14 15 19 20 6 7 10 12 13 12 11 16 13 15 16 12 15 14 14 14 12 6 8 6 5 4 5 7 6 10 14 17 10 13 11
3 3 4 8 15 8 4 20 19 17 20 19 15 18 14 19 23 15 13 11 9 10 10 11 11 14 16 16 18 21 18 14 13 13 12 9 8 9 7 8 9 6 1 6 8 13 10 5 11
6 4 8 16 14 2 7 8 20 20 17 22 20 15 14 17 15 14 14 13 13 14 9 9 9 13 16 18 18 16 14 13 10 7 7 9 11 10 9 9 8 7 7 6 8 10 9 13 13
7 6 13 11 10 3 7 10 19 14 26 12 18 14 9 11 13 2 10 13 10 12 14 10 9 13 17 18 17 19 17 14 9 6 8 10 12 12 12 12 12 12 10 8 8 10 10 9 8
10 19 8 9 5 9 15 7 13 25 23 15 8 21 11 3 10 4 7 10 11 12 11 12 11 9 11 13 14 15 16 15 11 7 4 4 7 9 11 11 13 13 15 16 13 10 9 7 6
18 14 11 9 12 7 16 5 24 28 14 8 11 15 13 26 12 7 8 11 13 14 13 13 12 8 9 12 13 13 14 13 12 9 8 9 11 11 12 15 15 16 17 17 15 14 11 8 6
14 8 7 4 3 6 10 18 27 30 33 24 0 11 15 20 20 5 9 13 13 14 15 15 16 14 13 14 17 19 18 16 14 11 9 11 12 14 15 15 16 16 17 17 16 13 13 11 9
21 10 10 10 17 11 16 17 28 27 28 20 5 8 4 19 31 20 9 11 15 21 20 17 19 20 19 19 22 21 20 17 16 15 15 14 13 16 19 19 19 21 20 18 18 18 18 17 13
11 15 12 17 16 25 10 23 19 22 26 13 13 12 8 15 23 13 8 11 11 15 13 17 23 28 24 23 25 25 25 23 19 18 17 18 18 19 18 21 22 23 24 25 21 22 22 21 19
16 16 14 17 16 16 22 20 21 26 17 12 14 15 15 15 17 9 13 15 16 16 19 22 24 23 28 31 30 29 29 28 26 24 23 21 21 23 24 24 26 27 27 27 26 25 25 23 22
18 12 11 8 10 11 17 33 29 35 20 5 9 12 15 17 17 17 17 14 15 17 22 26 29 30 29 27 30 31 29 28 28 27 26 26 26 28 29 30 31 32 30 28 28 27 28 27 26
21 22 14 8 12 18 27 16 26 30 22 34 9 11 16 19 20 21 22 20 22 24 26 27 29 33 33 29 31 31 29 28 29 26 28 29 29 28 29 31 34 35 33 32 31 32 30 30 32
23 15 12 15 14 21 22 23 25 21 24 5 12 25 26 24 24 32 24 25 27 31 32 33 34 34 30 31 34 34 33 31 31 29 27 30 30 31 32 34 35 38 40 37 33 34 33 33 32
Wind_Direction
42 44 46 72 26 44 54 54 310 350 337 340 34 18 232 239 270 55 305 305 328 12 58 80 87 110 107 120 123 121 117 106 100 107 94 100 156 156 141 103 70 72 81 96 121 107 111 108 81
46 35 58 23 35 3 22 7 323 326 354 318 358 347 333 314 284 320 212 309 294 30 60 71 81 104 114 126 119 125 115 101 86 74 52 74 144 133 134 93 64 75 80 98 116 95 92 83 191
25 36 61 38 13 27 43 12 42 64 13 20 20 358 2 334 289 272 318 270 17 27 18 37 72 74 110 128 112 116 105 98 87 71 66 65 58 78 112 106 80 77 59 91 108 105 76 67 20
45 42 26 14 9 35 31 100 50 9 29 37 35 38 37 30 344 3 21 16 9 77 39 68 78 79 120 148 137 105 100 94 75 63 52 57 42 21 38 39 52 52 35 59 91 112 104 55 18
45 49 16 23 31 37 41 35 32 37 27 21 27 38 40 39 62 60 53 68 104 101 69 67 65 73 112 141 129 100 70 63 64 67 62 61 35 92 53 22 12 30 36 38 42 50 8 18 271
55 44 314 354 28 38 31 38 1 32 23 18 22 37 42 62 78 74 80 144 141 128 75 50 58 97 112 113 94 349 341 249 195 187 291 283 226 13 114 110 337 11 14 23 28 38 332 275 250
78 53 3 3 36 47 44 32 38 28 23 38 36 27 33 26 56 80 1 283 156 84 81 64 94 129 249 309 312 280 254 253 238 228 257 297 321 297 144 160 131 28 8 5 23 41 344 280 268
67 65 6 354 30 56 54 45 41 49 51 39 34 33 33 27 49 82 17 72 224 28 47 23 351 306 285 283 276 275 280 276 265 243 315 246 307 167 185 162 112 79 328 329 346 18 315 251 219
81 128 69 0 34 53 54 53 55 52 45 49 43 42 37 38 41 92 91 166 163 55 54 60 46 20 354 314 290 286 294 293 291 278 306 226 66 150 174 115 148 239 290 337 346 9 195 133 196
54 327 60 54 348 70 64 61 44 44 42 45 40 30 23 29 67 90 125 142 135 112 85 60 55 52 35 11 335 320 301 300 302 302 269 208 135 202 293 30 279 288 314 317 287 13 234 165 263
98 33 344 184 52 54 68 71 93 39 43 41 30 21 14 29 28 60 62 85 98 104 78 21 34 31 16 21 10 328 302 301 285 108 179 153 41 38 169 225 329 324 298 307 271 221 213 219 236
315 162 224 61 71 69 35 62 56 45 43 41 34 26 31 57 48 47 57 50 43 53 43 43 25 33 9 355 323 335 328 304 152 174 139 195 75 223 329 256 269 297 302 275 287 245 231 249 254
64 60 13 64 73 78 71 47 41 39 36 37 34 37 52 57 52 41 46 56 59 55 40 16 5 65 25 15 282 63 317 290 147 122 110 124 242 277 278 259 268 261 285 273 269 280 252 254 271
52 114 343 10 71 58 26 42 25 22 31 34 35 35 43 43 38 38 50 63 68 61 46 59 82 58 46 38 16 93 191 163 150 155 99 18 15 354 285 256 275 282 279 287 278 276 270 238 269
101 119 124 337 14 301 314 85 23 9 18 36 43 48 44 34 26 35 45 52 63 54 61 58 77 81 45 37 43 64 105 159 183 266 291 316 321 357 355 269 262 266 272 273 268 250 235 225 240
94 231 242 282 355 310 324 82 34 1 8 22 52 53 35 17 25 32 30 46 31 34 53 62 52 48 47 47 53 54 59 102 48 182 11 18 300 312 279 274 286 282 282 273 280 228 234 231 224
208 256 327 249 332 307 318 336 2 350 356 15 28 43 29 22 20 18 30 25 41 44 51 56 55 49 45 52 57 66 57 55 53 70 57 55 28 313 310 292 297 304 284 279 285 282 201 239 227
200 250 207 292 295 313 273 309 331 333 0 29 41 35 21 19 6 351 327 46 26 26 29 26 30 32 46 42 29 56 54 45 53 38 32 40 45 31 18 335 313 284 265 265 286 281 270 191 222
215 254 306 254 270 282 224 279 318 323 343 350 8 18 7 30 20 32 64 56 35 22 15 20 20 47 38 31 23 25 23 21 25 35 25 31 29 33 23 22 28 23 6 312 317 318 304 276 255
201 221 244 244 292 221 222 258 291 306 334 329 341 14 358 25 45 64 59 42 29 19 24 43 29 29 20 22 23 14 14 15 24 23 31 25 19 21 18 13 12 16 4 353 335 330 328 302 293
200 212 244 244 279 124 236 277 269 279 298 328 319 339 349 9 33 52 17 11 16 11 13 5 2 358 3 18 17 29 27 38 46 38 35 25 13 10 7 9 5 359 356 350 337 336 330 305 307
236 210 206 231 258 269 333 276 255 251 268 281 282 309 306 330 14 32 315 322 351 349 351 348 344 348 358 7 15 15 17 24 38 19 359 1 5 358 4 359 359 355 348 341 342 330 328 318 305
242 251 207 250 251 239 276 255 245 254 299 164 291 298 308 215 326 334 318 308 321 330 328 325 325 325 349 7 6 7 3 3 359 10 3 0 348 348 341 346 346 343 344 346 330 325 328 322 310
216 229 213 227 250 254 256 229 269 271 284 287 163 310 311 298 226 318 319 322 311 309 308 310 312 320 340 348 351 350 343 338 339 337 339 341 333 325 325 325 328 329 329 328 334 321 316 313 307
222 224 242 258 236 275 286 255 248 272 291 276 22 285 306 291 314 317 352 314 320 318 301 294 299 304 314 328 331 325 321 321 323 319 315 318 318 317 317 319 317 316 316 315 309 308 309 307 300
248 216 223 249 285 268 266 235 253 275 294 287 282 298 298 315 306 341 262 294 328 331 329 321 308 290 295 305 311 312 314 312 315 314 307 305 308 310 310 307 306 306 303 304 301 297 298 299 300
210 215 231 265 293 291 291 285 252 268 291 261 299 292 289 288 298 298 278 295 296 304 310 306 304 307 290 290 298 306 305 307 309 307 305 301 301 303 305 308 307 306 303 296 294 291 288 292 291
223 220 221 241 265 252 250 251 263 280 226 145 296 295 305 302 301 294 290 293 291 301 300 300 301 298 297 298 296 294 292 291 294 297 296 297 298 302 306 309 309 309 305 300 290 284 280 280 283
227 235 224 240 258 259 238 275 291 294 307 285 240 311 308 300 291 286 288 292 293 297 294 294 294 292 295 295 298 300 296 290 290 293 293 294 295 297 300 305 307 305 302 299 293 287 281 279 274
228 223 250 243 259 248 262 290 283 277 309 356 100 321 319 311 298 287 277 294 294 291 289 289 287 286 287 282 296 303 306 300 293 294 288 287 290 295 299 303 307 305 302 300 291 284 277 275 275
Height
5898 5897 5896 5890 5892 5891 5894 5892 5890 5887 5888 5886 5886 5885 5885 5884 5882 5880 5879 5880 5881 5882 5883 5885 5887 5887 5886 5886 5887 5887 5888 5888 5888 5888 5888 5887 5888 5887 5887 5886 5885 5885 5885 5886 5887 5887 5888 5889 5889
5901 5901 5896 5893 5893 5894 5895 5893 5892 5892 5890 5888 5886 5886 5885 5885 5883 5883 5883 5883 5884 5883 5884 5884 5885 5886 5887 5887 5886 5888 5889 5889 5889 5889 5888 5888 5888 5888 5888 5887 5886 5886 5885 5886 5888 5889 5890 5891 5890
5902 5900 5899 5897 5898 5897 5894 5893 5892 5887 5889 5888 5887 5887 5886 5885 5884 5885 5884 5884 5881 5883 5883 5884 5885 5886 5887 5887 5888 5889 5890 5890 5891 5891 5890 5889 5888 5888 5889 5888 5887 5887 5886 5887 5888 5889 5891 5891 5891
5906 5899 5899 5903 5900 5899 5897 5897 5894 5894 5893 5890 5889 5887 5886 5886 5884 5884 5883 5882 5884 5884 5884 5884 5885 5886 5887 5888 5889 5891 5892 5893 5893 5894 5893 5891 5889 5890 5891 5889 5889 5888 5888 5888 5890 5891 5891 5892 5892
5901 5900 5908 5905 5902 5900 5899 5897 5898 5897 5894 5892 5891 5889 5888 5887 5886 5886 5885 5885 5885 5885 5885 5885 5886 5887 5887 5888 5890 5892 5894 5894 5895 5894 5893 5892 5891 5891 5892 5892 5891 5890 5889 5890 5891 5892 5892 5892 5892
5902 5911 5913 5906 5903 5902 5899 5896 5898 5898 5896 5894 5892 5890 5889 5889 5888 5887 5883 5883 5884 5884 5885 5887 5887 5888 5889 5890 5891 5892 5893 5893 5893 5892 5893 5893 5892 5892 5891 5890 5892 5891 5890 5891 5891 5892 5893 5892 5892
5907 5916 5912 5908 5905 5905 5903 5902 5901 5898 5896 5894 5894 5892 5891 5890 5889 5886 5883 5883 5879 5885 5885 5887 5888 5889 5890 5891 5891 5891 5891 5892 5891 5892 5893 5892 5892 5892 5892 5891 5891 5891 5891 5891 5892 5892 5892 5891 5893
5918 5919 5916 5911 5908 5907 5906 5905 5902 5901 5899 5895 5895 5894 5892 5891 5890 5886 5883 5889 5869 5885 5886 5888 5889 5889 5890 5890 5890 5890 5890 5891 5891 5891 5892 5893 5892 5892 5893 5893 5890 5891 5891 5892 5892 5892 5891 5892 5894
5923 5921 5917 5916 5912 5910 5908 5907 5905 5903 5900 5899 5897 5895 5893 5892 5890 5889 5886 5887 5892 5888 5889 5889 5889 5889 5889 5890 5890 5890 5890 5891 5891 5891 5891 5892 5891 5893 5894 5892 5892 5892 5892 5892 5893 5893 5891 5893 5893
5927 5925 5920 5919 5915 5913 5911 5910 5908 5906 5903 5901 5899 5897 5894 5893 5894 5891 5891 5890 5891 5891 5891 5890 5890 5890 5889 5890 5890 5891 5892 5891 5892 5891 5890 5891 5892 5893 5893 5893 5893 5893 5893 5893 5893 5893 5892 5893 5893
5930 5925 5925 5921 5919 5916 5913 5912 5915 5910 5907 5904 5903 5900 5898 5896 5895 5896 5893 5893 5892 5892 5893 5890 5890 5890 5891 5891 5891 5890 5891 5892 5892 5892 5892 5892 5892 5892 5893 5894 5894 5893 5894 5893 5894 5894 5893 5894 5894
5929 5928 5925 5922 5922 5920 5913 5916 5915 5913 5911 5909 5907 5905 5901 5899 5898 5897 5896 5894 5895 5894 5892 5893 5891 5891 5889 5888 5888 5888 5889 5892 5893 5893 5892 5893 5893 5893 5892 5893 5894 5894 5894 5894 5894 5894 5894 5893 5895
5931 5929 5926 5924 5923 5922 5922 5919 5917 5916 5914 5912 5911 5909 5906 5903 5902 5899 5897 5898 5898 5897 5895 5893 5892 5892 5891 5890 5888 5882 5889 5893 5894 5893 5893 5892 5892 5892 5891 5891 5892 5892 5892 5892 5894 5895 5895 5894 5893
5932 5931 5929 5927 5926 5924 5922 5921 5920 5918 5916 5915 5914 5911 5908 5906 5905 5904 5902 5901 5899 5897 5896 5895 5894 5894 5893 5891 5885 5884 5888 5892 5893 5894 5893 5893 5892 5890 5890 5890 5891 5892 5892 5891 5892 5893 5894 5895 5895
5932 5934 5934 5931 5929 5927 5926 5922 5923 5921 5919 5918 5916 5914 5913 5912 5910 5909 5905 5904 5904 5903 5896 5896 5897 5897 5893 5890 5890 5891 5891 5893 5894 5894 5893 5892 5891 5890 5890 5889 5891 5890 5890 5890 5890 5891 5893 5894 5894
5935 5935 5935 5933 5930 5927 5927 5924 5923 5924 5922 5920 5919 5917 5916 5914 5913 5911 5907 5908 5906 5907 5901 5900 5901 5901 5899 5898 5896 5895 5896 5894 5893 5893 5893 5892 5891 5890 5889 5889 5890 5888 5888 5888 5889 5890 5891 5891 5892
5939 5937 5936 5935 5934 5926 5925 5920 5922 5924 5926 5923 5921 5919 5916 5914 5913 5911 5908 5906 5909 5908 5905 5906 5906 5906 5904 5901 5900 5897 5896 5895 5894 5893 5892 5891 5891 5890 5889 5889 5888 5884 5887 5887 5887 5889 5887 5890 5890
5938 5932 5940 5939 5935 5934 5931 5926 5924 5923 5924 5926 5924 5920 5918 5915 5912 5909 5908 5906 5908 5907 5907 5909 5908 5907 5905 5903 5901 5899 5898 5897 5896 5894 5893 5892 5891 5890 5890 5888 5887 5886 5886 5886 5887 5885 5885 5888 5889
5935 5936 5942 5940 5936 5934 5935 5925 5927 5927 5921 5924 5924 5921 5918 5915 5912 5908 5908 5910 5911 5910 5910 5910 5909 5908 5906 5904 5902 5899 5900 5899 5897 5895 5895 5894 5893 5892 5891 5890 5888 5887 5887 5887 5886 5884 5887 5884 5884
5937 5941 5942 5936 5936 5933 5934 5934 5927 5924 5924 5920 5923 5922 5917 5914 5914 5913 5912 5912 5912 5911 5911 5910 5910 5908 5907 5906 5904 5902 5901 5899 5899 5897 5897 5895 5894 5893 5891 5891 5890 5888 5887 5886 5885 5884 5884 5883 5881
5935 5940 5934 5936 5934 5933 5935 5933 5929 5924 5923 5925 5920 5922 5916 5912 5913 5914 5913 5913 5913 5912 5911 5911 5909 5907 5906 5905 5902 5901 5901 5899 5899 5897 5896 5896 5894 5893 5892 5891 5890 5889 5888 5886 5885 5883 5882 5882 5881
5935 5934 5935 5934 5934 5934 5934 5934 5934 5927 5928 5927 5925 5918 5915 5916 5911 5914 5916 5916 5915 5913 5912 5912 5910 5909 5907 5905 5904 5902 5901 5901 5900 5899 5898 5896 5894 5894 5893 5892 5891 5890 5888 5887 5886 5884 5882 5881 5881
5931 5928 5931 5932 5931 5934 5933 5936 5926 5920 5915 5916 5925 5921 5918 5873 5909 5911 5917 5917 5916 5914 5912 5912 5911 5909 5906 5905 5903 5902 5901 5901 5900 5899 5897 5896 5894 5893 5893 5892 5890 5890 5888 5887 5885 5885 5882 5881 5880
5927 5926 5928 5929 5930 5932 5933 5933 5921 5919 5918 5924 5923 5922 5920 5911 5889 5898 5915 5916 5915 5912 5910 5909 5909 5907 5905 5903 5903 5902 5901 5899 5899 5898 5895 5894 5893 5893 5891 5890 5889 5888 5887 5886 5885 5883 5881 5880 5879
5922 5925 5928 5929 5928 5930 5929 5926 5920 5915 5916 5910 5916 5920 5917 5905 5880 5893 5907 5914 5913 5909 5907 5907 5905 5905 5903 5903 5901 5900 5900 5898 5896 5894 5893 5892 5891 5890 5889 5887 5886 5885 5885 5884 5883 5881 5880 5879 5877
5920 5923 5927 5926 5926 5922 5918 5914 5922 5919 5916 5912 5917 5915 5914 5905 5892 5904 5912 5912 5909 5907 5904 5904 5902 5902 5901 5900 5899 5897 5895 5894 5892 5891 5889 5888 5887 5887 5886 5884 5883 5881 5881 5880 5879 5878 5877 5876 5876
5916 5919 5924 5922 5925 5923 5922 5911 5911 5911 5916 5915 5914 5913 5914 5912 5909 5909 5908 5908 5906 5905 5903 5901 5900 5899 5897 5897 5895 5893 5890 5888 5886 5885 5884 5883 5882 5881 5881 5879 5878 5877 5875 5873 5873 5874 5870 5869 5870
5912 5917 5919 5924 5923 5924 5922 5914 5905 5901 5900 5906 5911 5910 5910 5910 5908 5907 5905 5904 5903 5901 5900 5899 5897 5896 5895 5893 5891 5889 5887 5884 5881 5879 5878 5876 5875 5873 5872 5871 5871 5869 5868 5868 5867 5865 5865 5865 5863
5913 5912 5914 5919 5921 5918 5914 5903 5903 5896 5903 5904 5906 5904 5905 5904 5902 5900 5898 5898 5897 5897 5895 5895 5893 5890 5889 5889 5885 5882 5880 5879 5876 5873 5872 5870 5869 5867 5865 5864 5863 5861 5860 5859 5859 5857 5856 5857 5857
5907 5911 5915 5917 5918 5913 5910 5907 5906 5908 5904 5879 5866 5899 5897 5896 5895 5888 5886 5887 5892 5891 5888 5887 5886 5884 5881 5881 5879 5876 5871 5869 5867 5866 5865 5864 5862 5860 5859 5857 5856 5853 5851 5849 5849 5848 5847 5849 5848